Location: Ferintosh
(52.7647°N, 112.9692°W)
Time: 13:02:11
(UTC+00:00)

Transit 2A - Pass Details

Date: 26 May 2024
Orbit: 593 x 959 km, 66.7° (Epoch: 14 June)

Event Time Altitude Azimuth Distance (km) Brightness Sun altitude
Rises 05:49:34 0° 215° (SW) 2,958 8.7 -12.9°
Reaches altitude 10° 05:51:45 10° 215° (SW) 2,094 8.0 -13.1°
Maximum altitude 05:56:30 84° 128° (SE) 730 5.8 -13.3°
Drops below altitude 10° 06:01:50 10° 41° (NE) 2,341 8.9 -13.6°
Sets 06:04:24 0° 41° (NE) 3,336 9.7 -13.8°
